Location: Ash Observatory
(39.7321°N, 75.2004°W)
Time: 06:28:40
(UTC-04:00)

ISS - Pass Details

Date: 24 March 2019
Orbit: 408 x 410 km, 51.6° (Epoch: 25 April)

Event Time Altitude Azimuth Distance (km) Brightness Sun altitude
Rises 20:37:29 0° 262° (W) 2,329 1.3 -16.1°
Reaches altitude 10° 20:39:48 10° 276° (W) 1,469 0.3 -16.5°
Maximum altitude 20:42:35 25° 334° (NNW) 875 -1.7 -17.0°
Enters shadow 20:45:13 11° 30° (NNE) 1,419 -1.2 -17.5°
